Avoca, PA

4:13 PM EST on December 09, 2019 (GMT -0500)
Wilkes-Barre-Scranton International

Weather History for KAVP - October, 2019

Change the Weather History Date:

Thursday, October 24, 2019

  Actual Average Record
Temperature  
Mean Temperature 53 °F 48 °F  
Max Temperature 69 °F 58 °F 77 °F (2001)
Min Temperature 36 °F 39 °F 21 °F (1969)
Degree Days  
Heating Degree Days 12 17  
Month to date heating degree days 240 315  
Since 1 July heating degree days 278 477  
Cooling Degree Days 0 0  
Month to date cooling degree days 16 0  
Year to date cooling degree days 846 576  
Growing Degree Days 2 (Base 50)    
Moisture  
Dew Point 34 °F    
Average Humidity 59    
Maximum Humidity 92    
Minimum Humidity 26    
Precipitation  
Precipitation 0.00 in 0.10 in 1.23 in (1917)
Month to date precipitation 3.75 2.65  
Year to date precipitation 42.62 31.75  
Sea Level Pressure  
Sea Level Pressure 30.26 in    
Wind  
Wind Speed 5 mph (SSW)    
Max Wind Speed 17 mph    
Max Gust Speed 24 mph    
Visibility 10 miles    
Events      
T = Trace of Precipitation, MM = Missing Value Source: NWS Daily Summary

Daily Weather History Graph

Daily Weather History Graph

Search for Another Location

Airport or City:

Astronomy

Oct. 24, 2019 Rise Set
Actual Time 7:24 AM EDT 6:08 PM EDT
Civil Twilight 6:56 AM EDT 6:37 PM EDT
Nautical Twilight 6:24 AM EDT 7:09 PM EDT
Astronomical Twilight 5:52 AM EDT 7:41 PM EDT
Moon 2:47 AM EDT (10/24) 4:38 PM EDT (10/24)
Length of Visible Light 11h 40m
Length of Day
10h 44m
Waning Crescent, 17% of the Moon is Illuminated
Oct 24
Waning Crescent
Oct 27
New
Nov 4
First Quarter
Nov 12
Full
Nov 19
Last Quarter

Hourly Weather History & Observations

Time (EDT) Temp. Windchill Dew Point Humidity Pressure Visibility Wind Dir Wind Speed Gust Speed Precip Events Conditions
12:54 AM 41.0 °F - 33.1 °F 73% 30.19 in 10.0 mi Calm Calm - N/A   Clear
1:54 AM 46.9 °F - 30.9 °F 54% 30.21 in 10.0 mi SW 3.5 mph - N/A   Clear
2:54 AM 39.9 °F - 34.0 °F 79% 30.21 in 10.0 mi Calm Calm - N/A   Clear
3:54 AM 39.0 °F - 34.0 °F 82% 30.22 in 10.0 mi Calm Calm - N/A   Clear
4:54 AM 37.9 °F - 34.0 °F 86% 30.25 in 10.0 mi Calm Calm - N/A   Clear
5:54 AM 37.0 °F 34.5 °F 34.0 °F 89% 30.27 in 10.0 mi ESE 3.5 mph - N/A   Clear
6:54 AM 37.0 °F 34.5 °F 34.0 °F 89% 30.28 in 10.0 mi ESE 3.5 mph - N/A   Clear
7:54 AM 36.0 °F - 34.0 °F 93% 30.31 in 10.0 mi Calm Calm - N/A   Clear
8:54 AM 45.0 °F - 36.0 °F 71% 30.32 in 10.0 mi Calm Calm - N/A   Clear
9:54 AM 50.0 °F - 37.0 °F 61% 30.32 in 10.0 mi Calm Calm - N/A   Clear
10:54 AM 54.0 °F - 37.0 °F 53% 30.30 in 10.0 mi Calm Calm - N/A   Clear
11:54 AM 59.0 °F - 37.9 °F 46% 30.29 in 10.0 mi Variable 5.8 mph - N/A   Clear
12:54 PM 64.9 °F - 36.0 °F 34% 30.26 in 10.0 mi WSW 8.1 mph - N/A   Clear
1:54 PM 68.0 °F - 34.0 °F 28% 30.24 in 10.0 mi WSW 12.7 mph - N/A   Clear
2:54 PM 68.0 °F - 34.0 °F 28% 30.23 in 10.0 mi SW 10.4 mph - N/A   Clear
3:54 PM 68.0 °F - 33.1 °F 27% 30.24 in 10.0 mi WSW 12.7 mph - N/A   Clear
4:54 PM 66.9 °F - 30.9 °F 26% 30.23 in 10.0 mi SW 12.7 mph 18.4 mph N/A   Clear
5:54 PM 64.0 °F - 32.0 °F 30% 30.23 in 10.0 mi SW 9.2 mph - N/A   Clear
6:54 PM 61.0 °F - 33.1 °F 35% 30.24 in 10.0 mi SSW 6.9 mph - N/A   Clear
7:54 PM 57.9 °F - 34.0 °F 41% 30.26 in 10.0 mi NNW 3.5 mph - N/A   Clear
8:54 PM 54.0 °F - 36.0 °F 51% 30.26 in 10.0 mi South 3.5 mph - N/A   Clear
9:54 PM 55.0 °F - 36.0 °F 49% 30.28 in 10.0 mi South 4.6 mph - N/A   Clear
10:54 PM 55.9 °F - 36.0 °F 47% 30.28 in 10.0 mi SSW 4.6 mph - N/A   Clear
11:54 PM 52.0 °F - 37.0 °F 57% 30.29 in 10.0 mi NE 4.6 mph - N/A   Clear